This demonstration page uses our WeatherBlox Daily Observations layout. Learn more.

Left ArrowRight Arrow

41.12389, -100.76542

Hourly Observations for July 27, 2015

Temp ( °F °C ) Dew Point ( °F °C ) Humidity (%) Winds ( mph kmh ) Pressure ( in mb ) Visibility ( mi km ) Precip ( " mm )
12:53 am 00:53 Clear 71 21.7 60 15.6 68 68 VRB 3 6 29.85 1011 10 16 0.00 0.00
1:53 am 01:53 Clear 69 20.6 61 16.1 76 76 Calm 29.86 1011 10 16 0.00 0.00
2:53 am 02:53 Clear 70 21.1 60 15.6 71 71 SE 5 7 29.85 1011 10 16 0.00 0.00
3:53 am 03:53 Clear 67 19.4 62 16.7 84 84 SSE 3 6 29.83 1010 10 16 0.00 0.00
4:53 am 04:53 Clear 64 17.8 61 16.1 90 90 Calm 29.81 1010 10 16 0.00 0.00
5:53 am 05:53 Clear 64 17.8 61 16.1 90 90 Calm 29.80 1009 10 16 0.00 0.00
6:53 am 06:53 Sunny 63 17.2 61 16.1 93 93 Calm 29.80 1009 10 16 0.00 0.00
7:53 am 07:53 Sunny 66 18.9 63 17.2 90 90 Calm 29.82 1010 10 16 0.00 0.00
8:53 am 08:53 Sunny 71 21.7 64 17.8 79 79 ESE 3 6 29.84 1011 10 16 0.00 0.00
9:53 am 09:53 Sunny 76 24.4 66 18.9 72 72 S 10 17 29.83 1010 10 16 0.00 0.00
10:53 am 10:53 Sunny 80 26.7 67 19.4 64 64 S 15 24 29.79 1009 10 16 0.00 0.00
11:53 am 11:53 Sunny 82 27.8 67 19.4 60 60 S 17 28 29.77 1008 10 16 0.00 0.00
12:53 pm 12:53 Sunny 83 28.3 68 20 61 61 S 15 24 29.76 1008 10 16 0.00 0.00
1:53 pm 13:53 Mostly Sunny 88 31.1 69 20.6 54 54 S 16 26 29.73 1007 10 16 0.00 0.00
2:53 pm 14:53 Sunny 89 31.7 68 20 50 50 S 14 22 29.70 1006 10 16 0.00 0.00
3:53 pm 15:53 Sunny 90 32.2 68 20 48 48 S 13 20 29.69 1005 10 16 0.00 0.00
4:53 pm 16:53 Sunny 90 32.2 69 20.6 50 50 S 18 30 29.67 1005 10 16 0.00 0.00
5:53 pm 17:53 Sunny 91 32.8 69 20.6 49 49 SSE 20 31 29.65 1004 10 16 0.00 0.00
6:53 pm 18:53 Sunny 88 31.1 69 20.6 54 54 S 16 26 29.65 1004 10 16 0.00 0.00
7:53 pm 19:53 Sunny 88 31.1 71 21.7 57 57 SE 13 20 29.62 1003 10 16 0.00 0.00
8:53 pm 20:53 Sunny 83 28.3 71 21.7 67 67 SE 9 15 29.62 1003 10 16 0.00 0.00
9:53 pm 21:53 Clear 84 28.9 70 21.1 63 63 SE 13 20 29.64 1004 10 16 0.00 0.00
10:53 pm 22:53 Clear 81 27.2 70 21.1 69 69 SE 13 20 29.63 1003 10 16 0.00 0.00
11:53 pm 23:53 Clear 82 27.8 67 19.4 60 60 SE 12 19 29.60 1003 10 16 0.00 0.00

Powered by AerisWeather